Vertical_Velocity
1 -3 -11 -1 -6 5 5 16 14 2 -2 8 2 0 -0 1 2 1 2 1 1 1 1 0 -0 -0 0 0 1 0 0 1 0 1 2 1 1 1 1 -1 2 2 -0 1
0 -9 1 -0 2 -5 3 0 28 14 10 1 1 0 1 2 2 2 2 0 0 -0 0 0 0 1 0 0 1 1 0 1 1 0 0 1 1 -2 -2 3 -3 -3 -1 1
-1 -0 1 -3 0 1 -2 -4 -1 8 8 3 -1 2 1 0 0 0 1 1 1 0 0 0 -0 -0 -0 0 0 1 1 2 1 1 1 2 1 1 2 -1 2 0 -2 1
-2 5 1 3 -3 3 2 2 -4 20 1 -3 -4 2 1 0 1 1 0 -0 0 1 -0 -0 -0 -0 0 0 0 1 1 1 1 1 1 1 1 2 1 2 1 -0 6 4
0 1 -3 -0 -3 3 -1 3 1 3 1 11 -1 12 6 2 0 -1 1 0 0 0 1 1 1 1 0 -0 -0 0 0 1 1 1 1 1 1 1 1 0 1 0 0 3
6 1 1 2 -2 3 -2 2 3 3 2 5 -4 -3 9 4 -4 -1 1 0 0 1 0 0 -0 -0 0 0 0 -0 -0 0 0 1 0 0 1 1 1 1 1 0 1 1
4 -0 0 2 2 2 2 3 2 4 3 -7 2 17 2 1 -0 0 0 0 0 0 0 -0 -0 -0 0 0 -0 0 -0 -0 -0 -0 -1 -1 -0 -0 1 -0 -0 0 1 0
0 14 -2 2 2 -3 -7 -8 -3 -3 -1 -2 6 2 0 0 3 -0 0 1 0 1 0 0 0 0 -0 -1 -1 -1 -1 -2 -1 -1 -1 -1 -2 -2 -2 -1 -0 -0 -0 0
10 6 1 3 -1 1 -3 4 3 -2 -0 3 1 1 2 1 1 1 -0 0 1 0 1 1 1 1 -0 -1 -1 0 0 0 -1 -2 -2 -1 -1 -2 -2 -3 -2 -2 -1 -0
-1 -0 2 1 2 6 0 -0 0 1 -1 0 6 2 0 0 -0 -0 2 1 0 -0 -0 0 1 1 -0 -1 -1 -1 -2 -2 -2 -1 -1 -1 -1 -1 -1 -1 -1 -2 -2 -1
0 1 0 4 2 -2 3 3 2 1 3 -0 0 2 1 -2 -2 0 0 -0 -1 -1 -0 -1 -2 -2 -2 -2 -2 -1 -1 -1 -1 -1 -1 -2 -2 -2 -2 -1 0 0 -0 0
1 2 2 -3 1 2 1 -1 -2 -1 1 1 2 1 -2 0 1 0 0 1 -1 -1 -1 -1 -1 -1 -2 -2 -3 -3 -3 -3 -3 -3 -3 -3 -3 -2 -1 -1 -1 -1 -1 -2
-0 4 -1 1 0 -1 -0 -0 -0 -1 -0 -1 -3 -1 -1 -0 1 0 0 1 0 1 -0 -1 -3 -3 -3 -2 -2 -3 -3 -3 -3 -3 -2 -3 -2 -2 -2 -2 -2 -1 -1 -1
2 0 0 -6 -2 -1 -1 0 0 0 -1 -0 0 -1 1 -0 0 -0 -1 -3 -3 -2 -2 -2 -1 -2 -2 -3 -3 -2 -2 -2 -3 -2 -2 -3 -2 -2 -2 -2 -1 -1 -2 -1
-0 -1 0 0 0 1 0 -0 -0 0 -0 -1 -1 -0 -1 -1 -0 -1 -2 -1 -1 -1 -2 -2 -2 -1 -1 -1 -1 -2 -4 -5 -3 -3 -3 -2 -1 -2 -2 -2 -3 -3 -3 -2
-0 -1 0 1 1 -1 -1 -0 -1 -1 -0 1 -1 -0 -0 0 -0 -0 -0 -1 -2 -2 -3 -3 -3 -4 -4 -4 -3 -3 -3 -3 -4 -3 -3 -3 -4 -3 -4 -3 -1 -0 -1 -2
-1 -0 0 1 -0 -1 -1 -0 -1 -1 -1 -0 -1 0 -0 1 -1 -1 -1 -2 -1 -2 -3 -2 -3 -3 -2 -2 -4 -3 -3 -3 -3 -3 -3 -3 -5 -4 -4 -4 -4 -3 -1 0
-2 -1 -1 -1 -1 -4 1 -1 -1 -1 -1 -1 -1 -1 -0 -1 -2 -1 -1 -1 -1 -2 -1 -0 -2 -1 -1 -3 -2 -1 -3 -2 -3 -2 -1 -0 -2 -3 -3 -3 -4 -3 -4 -4
-0 -2 -4 -6 -1 1 0 -1 -1 -0 1 -2 -1 -0 -1 -2 -2 -0 0 -3 -2 -3 -2 -2 -3 -3 -2 -3 -3 -4 -2 -5 -4 -3 -2 -1 -4 -3 -2 -2 -3 -2 -5 -2
0 -1 -3 -1 -1 -3 -1 -1 -0 -0 -5 -1 -1 -1 -1 -0 -2 -0 -3 -2 -2 -4 -4 -3 -2 -2 -3 -2 -3 -3 -3 -2 -3 -3 -2 -3 -4 -4 -3 -4 -2 -1 -4 -3
-2 -1 -2 -0 -0 -1 -1 -1 -1 -4 -2 -3 -3 -2 -3 -2 -4 -1 -2 2 -4 -4 -3 -4 -3 -3 -3 -2 -4 -2 -3 -3 -3 -3 -2 -2 -3 -5 -5 -4 -2 -4 -2 -4
-3 -1 -2 0 -2 -4 -2 -2 -3 -3 -2 -1 -2 -2 -1 -2 -2 -3 -2 -4 -4 -4 -3 -2 -3 -2 -2 -4 -5 -2 -2 -4 -3 -3 -2 -2 -1 -1 -4 -5 -2 -2 -4 -3
-0 -1 -3 -2 -2 -2 -1 -1 -2 -1 -1 0 0 -4 -4 -2 -3 -3 -1 -2 -1 -3 -2 -3 -3 -1 0 -2 -3 -2 -1 -3 -2 -1 -1 -2 -3 -3 -2 -4 -2 -3 -3 -4
-1 -1 -2 -5 -3 -2 -1 -1 -2 -3 -2 -4 -4 -2 -2 -0 -2 -1 -3 -3 -3 -4 -3 -4 -3 -1 1 -2 -0 -4 -2 -3 -3 -2 -1 -2 -3 -2 -1 -2 -3 -4 -2 -3
-2 -3 -1 -1 -1 -1 -2 -2 -2 -1 -1 -0 -1 -2 -3 -4 -2 -4 -3 -4 -4 -3 -2 -2 -2 -2 0 -3 -2 -2 -3 -5 -2 -2 0 -1 -3 -1 -1 1 -2 -3 2 -5
-1 -1 -2 -2 -2 -1 -2 -1 -2 -2 -2 -2 -2 -2 -4 -5 -3 -4 -2 -4 -4 -2 -3 -1 -1 -5 -2 -2 -2 -1 -3 -4 -3 -2 -2 -1 -5 -3 -3 -5 -1 5 -2 -0
Height
3065 3067 3067 3071 3074 3075 3080 3082 3085 3084 3086 3088 3091 3093 3094 3095 3096 3098 3100 3102 3103 3104 3105 3106 3107 3108 3109 3110 3111 3112 3113 3114 3115 3116 3118 3119 3120 3122 3122 3122 3124 3125 3126 3128
3063 3061 3067 3071 3074 3076 3077 3078 3082 3085 3086 3086 3089 3091 3092 3093 3094 3096 3097 3098 3099 3100 3101 3102 3103 3103 3104 3105 3105 3106 3107 3108 3109 3110 3112 3113 3114 3114 3115 3118 3118 3120 3121 3122
3057 3061 3063 3067 3070 3073 3074 3076 3079 3083 3085 3084 3087 3089 3088 3088 3089 3090 3091 3092 3094 3094 3095 3096 3097 3098 3098 3098 3099 3099 3100 3101 3102 3103 3104 3107 3107 3108 3110 3111 3113 3114 3114 3115
3056 3059 3061 3064 3066 3070 3071 3074 3077 3079 3080 3081 3084 3087 3083 3083 3084 3085 3086 3088 3089 3090 3091 3091 3092 3092 3093 3093 3093 3094 3094 3094 3095 3095 3097 3098 3100 3100 3102 3103 3105 3106 3108 3109
3054 3054 3057 3060 3064 3066 3068 3070 3073 3076 3077 3080 3079 3083 3080 3081 3079 3079 3081 3082 3084 3085 3087 3087 3088 3088 3088 3089 3089 3089 3089 3089 3090 3090 3090 3091 3092 3093 3094 3095 3097 3098 3099 3101
3050 3051 3054 3056 3058 3062 3064 3067 3070 3073 3077 3075 3073 3076 3081 3079 3074 3074 3077 3079 3080 3082 3083 3083 3084 3084 3084 3084 3084 3084 3084 3084 3084 3085 3085 3085 3086 3086 3086 3087 3088 3089 3090 3092
3047 3048 3050 3053 3055 3057 3061 3064 3070 3074 3075 3067 3065 3071 3070 3071 3071 3073 3074 3075 3076 3078 3079 3079 3080 3080 3080 3080 3080 3080 3080 3080 3080 3080 3080 3080 3080 3080 3080 3079 3080 3080 3081 3082
3042 3047 3045 3048 3050 3053 3055 3059 3059 3062 3064 3060 3061 3063 3063 3068 3070 3070 3070 3072 3073 3074 3074 3075 3076 3076 3077 3077 3076 3076 3076 3076 3075 3075 3074 3074 3074 3073 3073 3072 3071 3071 3072 3072
3038 3039 3040 3042 3045 3051 3052 3053 3056 3057 3056 3057 3058 3062 3063 3064 3065 3065 3066 3068 3069 3070 3071 3072 3072 3072 3072 3072 3072 3071 3071 3070 3069 3069 3068 3068 3067 3067 3066 3065 3064 3063 3063 3063
3033 3036 3037 3040 3043 3046 3047 3050 3054 3055 3056 3054 3055 3057 3057 3059 3059 3060 3064 3065 3066 3067 3068 3068 3067 3067 3066 3065 3065 3064 3064 3063 3063 3062 3061 3060 3059 3058 3057 3056 3055 3054 3054 3053
3030 3033 3037 3038 3040 3041 3045 3046 3049 3050 3050 3047 3047 3058 3056 3056 3057 3059 3060 3061 3062 3063 3063 3062 3062 3061 3060 3059 3057 3056 3055 3054 3053 3051 3051 3050 3049 3048 3047 3046 3045 3044 3043 3043
3027 3030 3033 3035 3037 3039 3040 3042 3044 3045 3047 3045 3046 3055 3053 3055 3056 3057 3058 3059 3059 3059 3058 3057 3056 3055 3053 3052 3051 3050 3049 3047 3045 3044 3043 3041 3040 3039 3037 3036 3034 3033 3032 3031
3022 3025 3029 3034 3037 3035 3036 3039 3041 3042 3043 3044 3047 3049 3050 3052 3053 3054 3055 3055 3055 3055 3054 3053 3052 3050 3049 3047 3045 3043 3041 3040 3038 3036 3034 3032 3030 3029 3027 3025 3024 3022 3021 3020
3019 3021 3022 3024 3027 3030 3032 3034 3036 3039 3041 3042 3042 3043 3046 3049 3051 3052 3052 3052 3051 3050 3049 3047 3045 3043 3042 3040 3038 3036 3033 3031 3029 3027 3025 3023 3021 3019 3017 3015 3013 3011 3010 3008
3017 3019 3021 3023 3025 3028 3030 3032 3034 3036 3038 3040 3040 3041 3043 3045 3046 3046 3046 3045 3045 3044 3043 3042 3040 3038 3035 3033 3030 3028 3025 3022 3020 3018 3015 3013 3011 3009 3007 3005 3003 3001 2998 2996
3013 3015 3018 3021 3023 3025 3027 3029 3030 3032 3034 3036 3037 3039 3040 3040 3040 3040 3039 3039 3039 3038 3036 3034 3032 3030 3028 3026 3023 3021 3018 3015 3012 3009 3007 3004 3002 2999 2997 2995 2993 2990 2988 2986
3011 3013 3017 3020 3022 3023 3026 3026 3026 3029 3031 3033 3034 3036 3036 3036 3036 3035 3034 3033 3032 3030 3028 3026 3024 3021 3019 3016 3013 3011 3009 3005 3003 3000 2997 2994 2991 2989 2986 2983 2981 2978 2976 2974
3008 3011 3015 3018 3021 3027 3023 3023 3024 3026 3028 3030 3032 3033 3033 3033 3032 3030 3029 3027 3025 3022 3020 3017 3014 3012 3008 3005 3002 3000 2997 2993 2990 2987 2984 2981 2978 2975 2973 2970 2968 2965 2963 2960
3007 3009 3013 3017 3020 3022 3022 3022 3025 3025 3028 3028 3029 3030 3030 3029 3027 3027 3025 3021 3018 3014 3011 3008 3004 3001 2998 2993 2990 2986 2983 2979 2976 2972 2970 2966 2963 2960 2957 2954 2952 2950 2948 2946
3006 3009 3012 3015 3017 3021 3020 3021 3022 3023 3025 3025 3025 3026 3026 3024 3023 3020 3017 3014 3010 3006 3002 2998 2994 2991 2987 2982 2978 2974 2970 2966 2962 2959 2955 2951 2947 2944 2941 2938 2935 2933 2930 2928
3006 3008 3011 3013 3015 3017 3018 3020 3021 3025 3028 3023 3023 3022 3020 3019 3017 3014 3010 3007 3002 2997 2993 2988 2983 2980 2975 2970 2966 2963 2959 2954 2950 2946 2942 2939 2934 2931 2927 2924 2921 2918 2914 2912
3004 3008 3010 3012 3014 3016 3016 3018 3022 3022 3019 3018 3017 3016 3014 3012 3009 3005 3001 2997 2992 2987 2983 2978 2974 2970 2965 2960 2956 2952 2948 2944 2940 2936 2932 2928 2924 2920 2915 2911 2908 2905 2901 2898
3004 3005 3008 3011 3012 3013 3014 3015 3015 3015 3014 3013 3011 3008 3006 3003 3000 2996 2993 2988 2984 2980 2975 2970 2966 2962 2958 2953 2948 2944 2940 2935 2931 2927 2923 2918 2914 2910 2905 2901 2897 2894 2890 2885
3000 3003 3005 3009 3010 3010 3011 3012 3012 3011 3009 3007 3005 3002 2999 2996 2992 2988 2984 2980 2976 2972 2968 2964 2959 2955 2951 2946 2941 2936 2930 2926 2922 2917 2913 2909 2904 2899 2895 2890 2886 2882 2879 2874
2999 3002 3003 3005 3007 3008 3009 3008 3008 3006 3004 3002 3000 2997 2993 2989 2985 2981 2977 2973 2969 2965 2960 2955 2951 2946 2942 2937 2932 2927 2922 2917 2913 2908 2904 2899 2894 2890 2885 2881 2877 2872 2869 2864
2998 3000 3003 3003 3005 3005 3006 3005 3004 3002 3000 2997 2995 2991 2986 2982 2978 2974 2970 2966 2961 2957 2953 2948 2943 2938 2933 2928 2923 2919 2913 2908 2903 2899 2895 2890 2885 2880 2876 2871 2868 2865 2860 2855